sat.trackr.live / text

‹ back to catalog

STARLINK-11128 [DTC]

NORAD 60302 · 2024-133B

PAYLOAD ACTIVE UNKNOWN

§ Identity

Operator
Country
US
Launch date
2024-07-28
Launch site
AFWTR
Launch vehicle
Mass (kg)
RCS (m²)

Purposes: comms

External: N2YO · Heavens-Above · Gunter

§ Orbital elements

Epoch: 2026-09-21T07:01:43.281120Z

Period
91.74 min
Inclination
53.1588°
Eccentricity
0.0001479
Mean motion
15.69709088 rev/d
Perigee alt
358.7 km
Apogee alt
360.7 km
Semi-major
6,737.9 km
B*
7.0789e-6
RAAN
262.1290°
Arg perigee
79.1454°
Mean anomaly
280.9730°
Rev number
12,445

§ Raw data

STARLINK-11128 [DTC]1 60302U 24133B   26264.29286205  .00000268  00000+0  70789-5 0  99992 60302  53.1588 262.1290 0001479  79.1454 280.9730 15.69709088124454

JSON: /api/v1/satellites/60302 · /tle

For live sub-satellite position, see the globe view (requires WebGL).

§ Visibility from observer

Set your observer location to see the next 7 days of passes ≥ 10°. The values pass through the URL so the page stays shareable.

No JS? Fill the form by hand. The geolocation button needs JavaScript.